AirNav   Air Wisconsin pilot careers
 
 970 users online  

36OH Wright's Field Airport
Conesville, Ohio, USA

GOING TO CONESVILLE?


FAA INFORMATION EFFECTIVE 07 DECEMBER 2017

Location

FAA Identifier: 36OH
Lat/Long: 40-11-25.2530N / 081-58-26.4860W
40-11.420883N / 081-58.441433W
40.1903481 / -81.9740239
(estimated)
Elevation: 770 ft. / 235 m (estimated)
Variation: 06W (1990)
From city: 5 miles W of CONESVILLE, OH
Time zone: UTC -5 (UTC -4 during Daylight Saving Time)
Zip code: 43811

Airport Operations

Airport use: Private use. Permission required prior to landing
Activation date: 10/1994
Control tower: no
ARTCC: INDIANAPOLIS CENTER
FSS: CLEVELAND FLIGHT SERVICE STATION
Attendance: UNATNDD
Wind indicator: yes
Segmented circle: no

Airport Communications

WX AWOS-3 at I40 (9 nm NE): 118.875 (740-295-7370)
WX ASOS at ZZV (15 nm S): 111.4 (740-453-8139)

Nearby radio navigation aids

VOR radial/distance  VOR name  Freq  Var
ZZVr352/15.4ZANESVILLE VOR/DME111.4006W
TVTr159/17.5TIVERTON VOR/DME116.5003W
CTWr271/22.9NEWCOMERSTOWN VOR/DME111.8007W
APEr091/28.3APPLETON VORTAC116.7006W

 
NDB name  Hdg/Dist  Freq  Var  ID
NEWARK072/24.552406WHEH .... . ....

Airport Services

Runway Information

Runway 6/24

Dimensions: 1800 x 80 ft. / 549 x 24 m
Surface: turf
RUNWAY 6  RUNWAY 24
Traffic pattern: leftright
Obstructions: 115 ft. pline, 1800 ft. from runway
180 FT HILL 75 FT S.
10 ft. tank, 30 ft. from runway

Airport Ownership and Management from official FAA records

Ownership: Privately-owned
Owner: CARL WRIGHT
16139 CR6
CONESVILLE, OH 43811
Phone 614-829-2409
Manager: CARL WRIGHT
16139 CR6
CONESVILLE, OH 43811
Phone 614-829-2409

Airport Operational Statistics

Aircraft based on the field: 1
Single engine airplanes: 1
    

Instrument Procedures

There are no published instrument procedures at 36OH.

Some nearby airports with instrument procedures:

I40 - Richard Downing Airport (9 nm NE)
KZZV - Zanesville Municipal Airport (15 nm S)
10G - Holmes County Airport (21 nm N)
KCDI - Cambridge Municipal Airport (22 nm SE)
KVTA - Newark-Heath Airport (24 nm SW)
 
Loc | Ops | Rwys | IFR | FBO | Links
Com | Nav | Svcs | Stats | Notes


 
Area around 36OH (Wright's Field Airport)
 
Road maps at: MapQuest Bing Google
 
Aerial photo
No photo
 
Sectional chart

 
Airport distance calculator
Flying to Wright's Field Airport? Find the distance to fly.

From to 36OH

Sunrise and sunset
Times for 12-Dec-2017
 Local
(UTC-5)
 Zulu
(UTC)
Morning civil twilight07:1112:11
Sunrise07:4212:42
Sunset17:0122:01
Evening civil twilight17:3222:32

Current date and time
Zulu (UTC)  13-Dec-2017 01:25:25
Local (UTC-5)  12-Dec-2017 20:25:25
 
METAR
KZZV 
15nm S 
130053Z AUTO 31013KT 10SM FEW044 OVC060 M06/M14 A2990 RMK AO2 SLP135 T10611144
KCDI 
22nm SE 
130055Z AUTO 31006KT 10SM OVC070 M06/M13 A2991 RMK AO2 T10631130
KVTA 
25nm SW 
130054Z AUTO 29007KT 10SM FEW032 FEW043 OVC060 M06/M12 A2991 RMK AO2 SLP139 T10611117
K4I3 
27nm W 
130055Z AUTO 29009KT 10SM SCT012 SCT020 BKN055 M07/M12 A2989 RMK AO2
TAF
KZZV 
15nm S 
121740Z 1218/1318 30015G25KT P6SM BKN040
NOTAMs
Click for the latest NOTAMs
NOTAMs are issued by the DoD/FAA and will open in a separate window not controlled by AirNav.

 

 
 

Would you like to see your business listed on this page?

 If your business provides an interesting product or service to pilots, flight crews, aircraft, or users of the Wright's Field Airport, you should consider listing it here.  To start the listing process, click on the button below
 
Add a business
 

Other Pages about Wright's Field Airport

Update a link
 
Copyright © AirNav, LLC. All rights reserved. Privacy Policy  Contact